Time,TemperatureF,DewpointF,PressureIn,WindDirection,WindDirectionDegrees,WindSpeedMPH,WindSpeedGustMPH,Humidity,HourlyPrecipIn,Conditions,Clouds,dailyrainin,SoftwareType,DateUTC
2013-05-16 06:57:00,53.0,53.0,-100.00,SW,215,0.0,1.0,99,0.00,,,-99.99,,2013-05-16 11:57:00,
2013-05-16 07:06:00,55.0,55.0,-100.00,SSW,200,1.0,2.0,99,0.00,,,-99.99,,2013-05-16 12:06:00,
2013-05-16 07:13:00,55.0,55.0,-100.00,SSE,160,0.0,1.0,99,0.00,,,-99.99,,2013-05-16 12:13:00,
2013-05-16 07:23:00,55.0,55.0,-100.00,SSE,160,0.0,1.0,99,0.00,,,-99.99,,2013-05-16 12:23:00,
2013-05-16 07:34:00,59.0,59.0,-100.00,NNW,335,0.0,1.0,99,0.00,,,-99.99,,2013-05-16 12:34:00,
2013-05-16 07:45:00,59.0,59.0,-100.00,NNW,335,0.0,1.0,99,0.00,,,-99.99,,2013-05-16 12:45:00,
2013-05-16 07:53:00,61.0,60.0,-100.00,NNW,330,2.0,3.0,95,0.00,,,-99.99,,2013-05-16 12:53:00,
2013-05-16 08:04:00,61.0,60.0,-100.00,NNW,330,2.0,3.0,95,0.00,,,-99.99,,2013-05-16 13:04:00,
2013-05-16 08:12:00,62.0,60.0,-100.00,NW,320,2.0,2.0,92,0.00,,,-99.99,,2013-05-16 13:12:00,
2013-05-16 08:26:00,62.0,60.0,-100.00,NW,320,2.0,2.0,92,0.00,,,-99.99,,2013-05-16 13:26:00,
2013-05-16 08:35:00,65.0,63.0,-100.00,NNW,330,0.0,1.0,92,0.00,,,-99.99,,2013-05-16 13:35:00,
2013-05-16 08:43:00,67.0,61.0,-100.00,West,260,0.0,1.0,82,0.00,,,-99.99,,2013-05-16 13:43:00,
2013-05-16 08:55:00,67.0,63.0,-100.00,West,265,2.0,3.0,87,0.00,,,-99.99,,2013-05-16 13:55:00,
2013-05-16 09:05:00,67.0,63.0,-100.00,West,265,2.0,3.0,87,0.00,,,-99.99,,2013-05-16 14:05:00,
2013-05-16 09:15:00,71.0,54.0,-100.00,SE,145,6.0,7.0,54,0.00,,,-99.99,,2013-05-16 14:15:00,
2013-05-16 09:23:00,72.0,54.0,-100.00,ESE,115,6.0,8.0,51,0.00,,,-99.99,,2013-05-16 14:23:00,
2013-05-16 09:37:00,72.0,54.0,-100.00,ESE,105,7.0,9.0,53,0.00,,,-99.99,,2013-05-16 14:37:00,
2013-05-16 09:47:00,71.0,51.0,-100.00,SE,140,7.0,11.0,48,0.00,,,-99.99,,2013-05-16 14:47:00,
2013-05-16 09:55:00,71.0,51.0,-100.00,SE,140,7.0,11.0,48,0.00,,,-99.99,,2013-05-16 14:55:00,
2013-05-16 10:08:00,71.0,54.0,-100.00,SE,135,6.0,10.0,53,0.00,,,-99.99,,2013-05-16 15:08:00,
2013-05-16 10:17:00,71.0,54.0,-100.00,SE,135,6.0,10.0,53,0.00,,,-99.99,,2013-05-16 15:17:00,
2013-05-16 10:28:00,71.0,52.0,-100.00,SE,130,7.0,11.0,51,0.00,,,-99.99,,2013-05-16 15:28:00,
2013-05-16 10:40:00,73.0,54.0,-100.00,SSE,150,9.0,12.0,52,0.00,,,-99.99,,2013-05-16 15:40:00,
2013-05-16 10:50:00,73.0,54.0,-100.00,SSE,160,9.0,12.0,51,0.00,,,-99.99,,2013-05-16 15:50:00,
2013-05-16 11:00:00,73.0,52.0,-100.00,SE,145,11.0,16.0,47,0.00,,,-99.99,,2013-05-16 16:00:00,
2013-05-16 11:09:00,73.0,52.0,-100.00,SE,145,11.0,16.0,47,0.00,,,-99.99,,2013-05-16 16:09:00,
2013-05-16 11:19:00,74.0,54.0,-100.00,SSE,155,9.0,14.0,49,0.00,,,-99.99,,2013-05-16 16:19:00,
2013-05-16 11:30:00,73.0,56.0,-100.00,SE,145,7.0,12.0,54,0.00,,,-99.99,,2013-05-16 16:30:00,
2013-05-16 11:40:00,74.0,-99.9,-100.00,SE,145,7.0,12.0,51,0.00,,,-99.99,,2013-05-16 16:40:00,
2013-05-16 11:50:00,75.0,55.0,-100.00,South,175,8.0,12.0,49,0.00,,,-99.99,,2013-05-16 16:50:00,
2013-05-16 12:00:00,75.0,55.0,-100.00,ESE,110,10.0,15.0,50,0.00,,,-99.99,,2013-05-16 17:00:00,
2013-05-16 12:10:00,74.0,54.0,-100.00,ESE,115,9.0,14.0,48,0.00,,,-99.99,,2013-05-16 17:10:00,
2013-05-16 12:20:00,75.0,55.0,-100.00,SE,125,9.0,15.0,49,0.00,,,-99.99,,2013-05-16 17:20:00,
2013-05-16 12:30:00,76.0,54.0,-100.00,SSE,155,8.0,15.0,47,0.00,,,-99.99,,2013-05-16 17:30:00,
2013-05-16 12:40:00,76.0,56.0,-100.00,East,100,10.0,17.0,50,0.00,,,-99.99,,2013-05-16 17:40:00,
2013-05-16 12:50:00,77.0,-99.9,-100.00,SSE,155,8.0,17.0,46,0.00,,,-99.99,,2013-05-16 17:50:00,
2013-05-16 13:00:00,77.0,-99.9,-100.00,SE,145,9.0,13.0,48,0.00,,,-99.99,,2013-05-16 18:00:00,
2013-05-16 13:10:00,78.0,56.0,-100.00,SSE,165,7.0,14.0,46,0.00,,,-99.99,,2013-05-16 18:10:00,
2013-05-16 13:20:00,78.0,58.0,-100.00,ESE,115,7.0,14.0,50,0.00,,,-99.99,,2013-05-16 18:20:00,
2013-05-16 13:30:00,-999.0,-99.9,-100.00,SE,145,9.0,14.0,46,0.00,,,-99.99,,2013-05-16 18:30:00,
2013-05-16 13:40:00,-999.0,-99.9,-100.00,ESE,120,9.0,12.0,43,0.00,,,-99.99,,2013-05-16 18:40:00,
2013-05-16 13:50:00,-999.0,-99.9,-100.00,SE,145,8.0,16.0,41,0.00,,,-99.99,,2013-05-16 18:50:00,
2013-05-16 14:00:00,-999.0,-99.9,-100.00,SE,145,8.0,14.0,45,0.00,,,-99.99,,2013-05-16 19:00:00,
2013-05-16 14:10:00,79.0,54.0,-100.00,ESE,110,9.0,15.0,41,0.00,,,-99.99,,2013-05-16 19:10:00,
2013-05-16 14:20:00,80.0,54.0,-100.00,SE,125,11.0,17.0,41,0.00,,,-99.99,,2013-05-16 19:20:00,
2013-05-16 14:30:00,80.0,57.0,-100.00,SE,125,9.0,17.0,44,0.00,,,-99.99,,2013-05-16 19:30:00,
2013-05-16 14:40:00,80.0,-99.9,-100.00,SE,140,7.0,15.0,44,0.00,,,-99.99,,2013-05-16 19:40:00,
2013-05-16 14:50:00,-999.0,-99.9,-100.00,SE,145,11.0,17.0,41,0.00,,,-99.99,,2013-05-16 19:50:00,
2013-05-16 15:00:00,81.0,-99.9,-100.00,ESE,110,12.0,17.0,44,0.00,,,-99.99,,2013-05-16 20:00:00,
2013-05-16 15:10:00,-999.0,-99.9,-100.00,ESE,115,6.0,16.0,44,0.00,,,-99.99,,2013-05-16 20:10:00,
2013-05-16 15:20:00,80.0,-99.9,-100.00,ESE,110,11.0,18.0,41,0.00,,,-99.99,,2013-05-16 20:20:00,
2013-05-16 15:30:00,81.0,58.0,-100.00,SE,125,11.0,16.0,43,0.00,,,-99.99,,2013-05-16 20:30:00,
2013-05-16 15:40:00,-999.0,-99.9,-100.00,ESE,115,12.0,16.0,42,0.00,,,-99.99,,2013-05-16 20:40:00,
2013-05-16 15:50:00,81.0,56.0,-100.00,SE,125,12.0,21.0,41,0.00,,,-99.99,,2013-05-16 20:50:00,
2013-05-16 16:00:00,82.0,56.0,-100.00,SSE,160,9.0,18.0,41,0.00,,,-99.99,,2013-05-16 21:00:00,
2013-05-16 16:10:00,81.0,-99.9,-100.00,ESE,110,10.0,16.0,42,0.00,,,-99.99,,2013-05-16 21:10:00,
2013-05-16 16:20:00,81.0,-99.9,-100.00,ESE,110,10.0,16.0,42,0.00,,,-99.99,,2013-05-16 21:20:00,
2013-05-16 16:29:00,82.0,57.0,-100.00,ESE,120,9.0,16.0,42,0.00,,,-99.99,,2013-05-16 21:29:00,
2013-05-16 16:38:00,82.0,58.0,-100.00,ESE,115,11.0,16.0,43,0.00,,,-99.99,,2013-05-16 21:38:00,
2013-05-16 16:50:00,83.0,-99.9,-100.00,SE,145,9.0,19.0,39,0.00,,,-99.99,,2013-05-16 21:50:00,
2013-05-16 17:00:00,-999.0,-99.9,-100.00,SE,130,10.0,15.0,39,0.00,,,-99.99,,2013-05-16 22:00:00,
2013-05-16 17:08:00,83.0,56.0,-100.00,SSE,165,12.0,16.0,40,0.00,,,-99.99,,2013-05-16 22:08:00,
2013-05-16 17:21:00,82.0,56.0,-100.00,SE,135,7.0,19.0,41,0.00,,,-99.99,,2013-05-16 22:21:00,
2013-05-16 17:30:00,81.0,56.0,-100.00,SE,135,11.0,16.0,42,0.00,,,-99.99,,2013-05-16 22:30:00,
2013-05-16 17:40:00,81.0,58.0,-100.00,ESE,120,7.0,16.0,45,0.00,,,-99.99,,2013-05-16 22:40:00,
2013-05-16 17:50:00,80.0,57.0,-100.00,ESE,120,7.0,12.0,44,0.00,,,-99.99,,2013-05-16 22:50:00,
2013-05-16 18:00:00,80.0,56.0,-100.00,ESE,110,10.0,15.0,43,0.00,,,-99.99,,2013-05-16 23:00:00,
2013-05-16 18:06:00,80.0,57.0,-100.00,ESE,115,8.0,16.0,45,0.00,,,-99.99,,2013-05-16 23:06:00,
2013-05-16 18:16:00,80.0,58.0,-100.00,ESE,110,8.0,12.0,45,0.00,,,-99.99,,2013-05-16 23:16:00,
2013-05-16 18:24:00,81.0,62.0,-100.00,SSE,160,8.0,14.0,52,0.00,,,-99.99,,2013-05-16 23:24:00,
2013-05-16 18:35:00,81.0,62.0,-100.00,South,175,10.0,14.0,52,0.00,,,-99.99,,2013-05-16 23:35:00,
2013-05-16 18:45:00,81.0,63.0,-100.00,South,175,8.0,12.0,54,0.00,,,-99.99,,2013-05-16 23:45:00,
2013-05-16 18:54:00,80.0,63.0,-100.00,SSE,165,7.0,12.0,55,0.00,,,-99.99,,2013-05-16 23:54:00,
2013-05-16 19:02:00,80.0,62.0,-100.00,South,185,8.0,12.0,54,0.00,,,-99.99,,2013-05-17 00:02:00,
2013-05-16 19:13:00,79.0,62.0,-100.00,SSE,165,7.0,12.0,56,0.00,,,-99.99,,2013-05-17 00:13:00,
2013-05-16 19:22:00,79.0,62.0,-100.00,South,180,5.0,9.0,56,0.00,,,-99.99,,2013-05-17 00:22:00,
2013-05-16 19:33:00,78.0,62.0,-100.00,South,175,6.0,9.0,56,0.00,,,-99.99,,2013-05-17 00:33:00,
2013-05-16 19:43:00,78.0,62.0,-100.00,SSE,165,5.0,7.0,59,0.01,,,-99.99,,2013-05-17 00:43:00,
2013-05-16 19:52:00,77.0,63.0,-100.00,SSE,150,4.0,7.0,61,0.04,,,-99.99,,2013-05-17 00:52:00,
2013-05-16 20:03:00,76.0,63.0,-100.00,SSE,150,3.0,6.0,63,0.04,,,-99.99,,2013-05-17 01:03:00,
2013-05-16 20:12:00,75.0,63.0,-100.00,SE,140,3.0,4.0,67,0.00,,,-99.99,,2013-05-17 01:12:00,
2013-05-16 20:23:00,74.0,63.0,-100.00,SSE,165,2.0,3.0,67,0.00,,,-99.99,,2013-05-17 01:23:00,
2013-05-16 20:32:00,74.0,63.0,-100.00,SSE,150,2.0,3.0,69,0.00,,,-99.99,,2013-05-17 01:32:00,
2013-05-16 20:43:00,72.0,63.0,-100.00,SSE,165,1.0,2.0,73,0.00,,,-99.99,,2013-05-17 01:43:00,
2013-05-16 20:52:00,72.0,63.0,-100.00,SE,135,1.0,2.0,74,0.00,,,-99.99,,2013-05-17 01:52:00,
2013-05-16 21:02:00,71.0,63.0,-100.00,East,90,2.0,2.0,76,0.00,,,-99.99,,2013-05-17 02:02:00,
2013-05-16 21:11:00,71.0,63.0,-100.00,East,90,2.0,2.0,76,0.00,,,-99.99,,2013-05-17 02:11:00,
2013-05-16 21:21:00,71.0,63.0,-100.00,ESE,120,1.0,2.0,77,0.00,,,-99.99,,2013-05-17 02:21:00,
2013-05-16 21:32:00,70.0,64.0,-100.00,ESE,105,2.0,2.0,80,0.00,,,-99.99,,2013-05-17 02:32:00,
2013-05-16 21:42:00,69.0,64.0,-100.00,ESE,120,3.0,4.0,85,0.00,,,-99.99,,2013-05-17 02:42:00,
2013-05-16 21:53:00,69.0,64.0,-100.00,ESE,120,4.0,4.0,84,0.00,,,-99.99,,2013-05-17 02:53:00,
2013-05-16 22:02:00,69.0,65.0,-100.00,SE,135,1.0,3.0,88,0.00,,,-99.99,,2013-05-17 03:02:00,
2013-05-16 22:11:00,69.0,65.0,-100.00,SSE,150,2.0,2.0,88,0.00,,,-99.99,,2013-05-17 03:11:00,
2013-05-16 22:22:00,70.0,65.0,-100.00,SE,130,2.0,3.0,86,0.00,,,-99.99,,2013-05-17 03:22:00,
2013-05-16 22:34:00,70.0,65.0,-100.00,ESE,115,3.0,4.0,85,0.00,,,-99.99,,2013-05-17 03:34:00,
2013-05-16 22:43:00,70.0,65.0,-100.00,ESE,120,3.0,4.0,83,0.00,,,-99.99,,2013-05-17 03:43:00,
2013-05-16 22:53:00,69.0,65.0,-100.00,East,90,1.0,4.0,87,0.00,,,-99.99,,2013-05-17 03:53:00,
2013-05-16 23:02:00,68.0,66.0,-100.00,SE,145,1.0,4.0,91,0.00,,,-99.99,,2013-05-17 04:02:00,
2013-05-16 23:13:00,67.0,66.0,-100.00,South,185,1.0,2.0,94,0.00,,,-99.99,,2013-05-17 04:13:00,
2013-05-16 23:23:00,68.0,66.0,-100.00,SE,145,3.0,4.0,93,0.00,,,-99.99,,2013-05-17 04:23:00,
2013-05-16 23:33:00,68.0,65.0,-100.00,SE,130,2.0,4.0,92,0.00,,,-99.99,,2013-05-17 04:33:00,
2013-05-16 23:43:00,67.0,66.0,-100.00,ESE,115,2.0,4.0,95,0.00,,,-99.99,,2013-05-17 04:43:00,
2013-05-16 23:53:00,67.0,66.0,-100.00,SE,125,3.0,4.0,98,0.00,,,-99.99,,2013-05-17 04:53:00,